| time (UTC) | temp C | wind direction | speed KPH | gust KPH | rain 1hr cm | rain 24hr cm | rain mn cm | humidity % | barometer mb |
| 20260906200050 | 32 | 160 | 6.4 | 17.7 | 0.00 | 0.10 | 0.10 | 49 | 1014.3 |
| 20260906194557 | 31 | 160 | 8.0 | 16.1 | 0.00 | 0.10 | 0.10 | 54 | 1014.6 |
| 20260906193055 | 30 | 95 | 6.4 | 17.7 | 0.00 | 0.10 | 0.10 | 57 | 1015.0 |
| 20260906191552 | 30 | 119 | 8.0 | 17.7 | 0.00 | 0.10 | 0.10 | 59 | 1015.1 |
| 20260906190050 | 28 | 55 | 4.8 | 17.7 | 0.00 | 0.10 | 0.10 | 64 | 1015.2 |
| 20260906184559 | 27 | 48 | 4.8 | 14.5 | 0.00 | 0.10 | 0.10 | 68 | 1015.6 |
| 20260906183058 | 26 | 151 | 4.8 | 14.5 | 0.00 | 0.10 | 0.10 | 71 | 1016.0 |
| 20260906181559 | 25 | 51 | 6.4 | 12.9 | 0.00 | 0.10 | 0.10 | 73 | 1016.1 |
| 20260906174558 | 25 | 83 | 3.2 | 11.3 | 0.00 | 0.10 | 0.10 | 77 | 1017.0 |
| 20260906173052 | 25 | 96 | 1.6 | 9.7 | 0.00 | 0.10 | 0.10 | 77 | 1017.4 |
| 20260906171557 | 24 | 54 | 3.2 | 8.0 | 0.00 | 0.10 | 0.10 | 78 | 1017.8 |
| 20260906170058 | 24 | 350 | 3.2 | 12.9 | 0.00 | 0.10 | 0.10 | 79 | 1017.9 |
| 20260906164554 | 24 | 358 | 3.2 | 9.7 | 0.03 | 0.10 | 0.10 | 79 | 1017.9 |
| 20260906163100 | 24 | 8 | 4.8 | 12.9 | 0.08 | 0.10 | 0.10 | 84 | 1018.3 |
| 20260906161550 | 24 | 355 | 3.2 | 8.0 | 0.10 | 0.10 | 0.10 | 83 | 1018.6 |
| 20260906160050 | 24 | 21 | 1.6 | 4.8 | 0.10 | 0.10 | 0.10 | 86 | 1018.8 |
| 20260906154559 | 23 | 0 | 0.0 | 1.6 | 0.08 | 0.08 | 0.08 | 85 | 1018.8 |
| 20260906153052 | 23 | 340 | 1.6 | 6.4 | 0.03 | 0.03 | 0.03 | 81 | 1018.3 |
| 20260906151550 | 24 | 11 | 1.6 | 3.2 | 0.00 | 0.00 | 0.00 | 78 | 1018.1 |
| 20260906150046 | 24 | 351 | 1.6 | 6.4 | 0.00 | 0.00 | 0.00 | 76 | 1018.2 |
| 20260906144552 | 24 | 50 | 3.2 | 6.4 | 0.00 | 0.00 | 0.00 | 77 | 1018.0 |
| 20260906143050 | 24 | 20 | 3.2 | 12.9 | 0.00 | 0.00 | 0.00 | 76 | 1018.1 |
| 20260906141549 | 24 | 23 | 3.2 | 14.5 | 0.00 | 0.00 | 0.00 | 75 | 1017.9 |
| 20260906140055 | 24 | 9 | 6.4 | 14.5 | 0.00 | 0.00 | 0.00 | 75 | 1017.9 |
| 20260906134551 | 24 | 359 | 6.4 | 16.1 | 0.00 | 0.00 | 0.00 | 76 | 1017.9 |
| 20260906133046 | 23 | 7 | 3.2 | 14.5 | 0.00 | 0.00 | 0.00 | 76 | 1018.0 |
| 20260906131553 | 24 | 89 | 8.0 | 20.9 | 0.00 | 0.00 | 0.00 | 74 | 1017.8 |
| 20260906130053 | 24 | 1 | 3.2 | 12.9 | 0.00 | 0.00 | 0.00 | 70 | 1017.6 |
| 20260906124549 | 23 | 334 | 1.6 | 4.8 | 0.00 | 0.00 | 0.00 | 71 | 1017.6 |
| 20260906123056 | 23 | 297 | 1.6 | 11.3 | 0.00 | 0.00 | 0.00 | 73 | 1017.2 |
| 20260906121556 | 22 | 0 | 0.0 | 0.0 | 0.00 | 0.00 | 0.00 | 76 | 1016.1 |
| 20260906120111 | 22 | 0 | 0.0 | 1.6 | 0.00 | 0.00 | 0.00 | 75 | 1016.0 |
| 20260906114548 | 23 | 0 | 0.0 | 0.0 | 0.00 | 0.00 | 0.00 | 72 | 1015.7 |
| 20260906113049 | 23 | 180 | 0.0 | 3.2 | 0.00 | 0.00 | 0.00 | 70 | 1015.3 |
| 20260906111608 | 23 | 186 | 0.0 | 8.0 | 0.00 | 0.00 | 0.00 | 69 | 1015.0 |
| 20260906110053 | 24 | 217 | 0.0 | 8.0 | 0.00 | 0.00 | 0.00 | 69 | 1014.5 |
| 20260906104549 | 24 | 184 | 3.2 | 8.0 | 0.00 | 0.00 | 0.00 | 69 | 1014.3 |
| 20260906103055 | 24 | 200 | 1.6 | 6.4 | 0.00 | 0.00 | 0.00 | 69 | 1014.4 |
| 20260906101552 | 23 | 145 | 1.6 | 6.4 | 0.00 | 0.00 | 0.00 | 70 | 1014.3 |
| 20260906100108 | 23 | 146 | 1.6 | 6.4 | 0.00 | 0.00 | 0.00 | 71 | 1014.3 |
| 20260906094559 | 23 | 221 | 1.6 | 4.8 | 0.00 | 0.00 | 0.00 | 72 | 1014.3 |
| 20260906093056 | 23 | 169 | 1.6 | 4.8 | 0.00 | 0.00 | 0.00 | 73 | 1014.4 |
| 20260906091551 | 23 | 122 | 1.6 | 4.8 | 0.00 | 0.00 | 0.00 | 74 | 1014.2 |
| 20260906090100 | 23 | 0 | 0.0 | 1.6 | 0.00 | 0.00 | 0.00 | 74 | 1014.1 |
| 20260906084555 | 23 | 124 | 0.0 | 3.2 | 0.00 | 0.00 | 0.00 | 73 | 1014.2 |
| 20260906083057 | 23 | 206 | 0.0 | 3.2 | 0.00 | 0.00 | 0.00 | 73 | 1014.2 |
| 20260906081553 | 23 | 140 | 0.0 | 3.2 | 0.00 | 0.00 | 0.00 | 75 | 1014.4 |
| 20260906080057 | 23 | 142 | 1.6 | 4.8 | 0.00 | 0.00 | 0.00 | 75 | 1014.4 |
| 20260906074600 | 23 | 155 | 0.0 | 0.0 | 0.00 | 0.00 | 0.00 | 78 | 1014.4 |
| 20260906073054 | 22 | 155 | 0.0 | 0.0 | 0.00 | 0.00 | 0.00 | 81 | 1014.5 |
| 20260906071600 | 22 | 0 | 0.0 | 0.0 | 0.00 | 0.00 | 0.00 | 80 | 1014.4 |
| 20260906070051 | 23 | 0 | 0.0 | 0.0 | 0.00 | 0.00 | 0.00 | 78 | 1014.5 |
| 20260906064556 | 23 | 152 | 0.0 | 0.0 | 0.00 | 0.00 | 0.00 | 78 | 1014.4 |
| 20260906063057 | 23 | 0 | 0.0 | 1.6 | 0.00 | 0.00 | 0.00 | 78 | 1014.2 |
| 20260906061558 | 23 | 0 | 0.0 | 1.6 | 0.00 | 0.00 | 0.00 | 78 | 1014.3 |
| 20260906060051 | 23 | 149 | 0.0 | 1.6 | 0.00 | 0.00 | 0.00 | 78 | 1014.1 |
| 20260906054556 | 23 | 131 | 0.0 | 1.6 | 0.00 | 0.00 | 0.00 | 78 | 1013.9 |
| 20260906053055 | 23 | 0 | 0.0 | 3.2 | 0.00 | 0.00 | 0.00 | 77 | 1014.0 |
| 20260906051602 | 23 | 88 | 1.6 | 8.0 | 0.00 | 0.00 | 0.00 | 76 | 1014.0 |
| 20260906044555 | 25 | 0 | 0.0 | 1.6 | 0.00 | 0.00 | 0.00 | 73 | 1014.0 |
| 20260906043053 | 25 | 206 | 0.0 | 1.6 | 0.00 | 0.00 | 0.00 | 72 | 1014.0 |
| 20260906041555 | 25 | 179 | 0.0 | 3.2 | 0.00 | 0.00 | 0.00 | 71 | 1013.9 |
| 20260906040049 | 25 | 213 | 0.0 | 1.6 | 0.00 | 0.00 | 0.00 | 71 | 1013.9 |
| 20260906034555 | 25 | 0 | 0.0 | 3.2 | 0.00 | 0.00 | 0.00 | 69 | 1014.2 |
| 20260906033053 | 26 | 0 | 0.0 | 3.2 | 0.00 | 0.00 | 0.00 | 67 | 1014.2 |
| 20260906031549 | 26 | 0 | 0.0 | 3.2 | 0.00 | 0.00 | 0.00 | 65 | 1013.9 |
| 20260906024616 | 26 | 110 | 0.0 | 3.2 | 0.00 | 0.00 | 0.00 | 62 | 1013.4 |
| 20260906023051 | 27 | 145 | 1.6 | 3.2 | 0.00 | 0.00 | 0.00 | 61 | 1013.3 |
| 20260906021551 | 27 | 0 | 0.0 | 4.8 | 0.00 | 0.00 | 0.00 | 59 | 1013.2 |
| 20260906020051 | 28 | 176 | 0.0 | 4.8 | 0.00 | 0.00 | 0.00 | 57 | 1013.1 |
| 20260906014602 | 28 | 148 | 1.6 | 3.2 | 0.00 | 0.00 | 0.00 | 56 | 1012.8 |
| 20260906013052 | 29 | 168 | 1.6 | 4.8 | 0.00 | 0.00 | 0.00 | 54 | 1012.5 |
| 20260906011552 | 30 | 118 | 1.6 | 4.8 | 0.00 | 0.00 | 0.00 | 52 | 1012.5 |
| 20260906010059 | 30 | 142 | 1.6 | 8.0 | 0.00 | 0.00 | 0.00 | 49 | 1012.7 |
| 20260906004549 | 31 | 111 | 3.2 | 6.4 | 0.00 | 0.00 | 0.00 | 46 | 1012.6 |
| 20260906003110 | 32 | 204 | 1.6 | 8.0 | 0.00 | 0.00 | 0.00 | 44 | 1012.7 |
| 20260906001553 | 33 | 194 | 1.6 | 9.7 | 0.00 | 0.00 | 0.00 | 42 | 1012.6 |
| 20260905234546 | 33 | 131 | 4.8 | 11.3 | 0.00 | 0.00 | 0.00 | 40 | 1012.7 |
| 20260905233053 | 34 | 219 | 4.8 | 9.7 | 0.00 | 0.00 | 0.00 | 40 | 1012.6 |
| 20260905231555 | 34 | 168 | 6.4 | 16.1 | 0.00 | 0.00 | 0.00 | 40 | 1012.7 |
| 20260905230053 | 33 | 158 | 6.4 | 24.1 | 0.00 | 0.00 | 0.00 | 41 | 1012.8 |
| 20260905224556 | 33 | 283 | 6.4 | 20.9 | 0.00 | 0.00 | 0.00 | 37 | 1013.0 |
| 20260905223055 | 33 | 106 | 8.0 | 16.1 | 0.00 | 0.00 | 0.00 | 40 | 1012.7 |
| 20260905221552 | 32 | 158 | 6.4 | 19.3 | 0.00 | 0.00 | 0.00 | 46 | 1012.6 |
| 20260905220051 | 30 | 188 | 9.7 | 22.5 | 0.00 | 0.00 | 0.00 | 51 | 1012.7 |
| 20260905214547 | 30 | 229 | 11.3 | 24.1 | 0.00 | 0.00 | 0.00 | 50 | 1012.9 |
| 20260905213054 | 31 | 198 | 8.0 | 17.7 | 0.00 | 0.00 | 0.00 | 45 | 1012.9 |
| 20260905211551 | 31 | 148 | 8.0 | 22.5 | 0.00 | 0.00 | 0.00 | 46 | 1012.9 |
| 20260905210046 | 32 | 133 | 8.0 | 22.5 | 0.00 | 0.00 | 0.00 | 45 | 1013.1 |
| 20260905204600 | 33 | 194 | 6.4 | 24.1 | 0.00 | 0.00 | 0.00 | 42 | 1012.8 |
| 20260905203054 | 36 | 143 | 11.3 | 20.9 | 0.00 | 0.00 | 0.00 | 40 | 1012.9 |
| 20260905201554 | 37 | 128 | 6.4 | 20.9 | 0.00 | 0.00 | 0.00 | 37 | 1012.9 |